When you browse on this site, cookies collect data to enhance your experience and personalize the content and advertising you see.
Visit our Privacy Policy to learn more. By continuing to use the site, you agree to this use of cookies and data.
  • In Netherlands
  • List of Countries
  • For 7 days
  • Water Temperature
  • Weather Map
  • Weather Widgets
  • user-avatar
    Login

    Hourly Weather Lopatino

    Today, 14 December, Saturday

    Time Temperature Precipitation Wind Pressure Humidity
    00:00 -3°C° 0 mm 7 mps 740 mmHg 83%
    01:00 -3°C° 0 mm 7 mps 740 mmHg 83%
    02:00 -3°C° 0 mm 7 mps 740 mmHg 83%
    03:00 -3°C° 0 mm 7 mps 740 mmHg 84%
    04:00 -3°C° 0 mm 6 mps 740 mmHg 85%
    05:00 -3°C° 0 mm 6 mps 740 mmHg 85%
    06:00 -3°C° 0 mm 6 mps 740 mmHg 85%
    07:00 -3°C° 0 mm 6 mps 740 mmHg 84%
    08:00 -2°C° 0 mm 5 mps 740 mmHg 83%
    09:00 -2°C° 0 mm 5 mps 740 mmHg 82%
    10:00 -1°C° 0 mm 5 mps 740 mmHg 82%
    11:00 -1°C° 0 mm 5 mps 740 mmHg 81%
    12:00 -1°C° 0 mm 5 mps 740 mmHg 83%
    13:00 -1°C° 0 mm 5 mps 740 mmHg 84%
    14:00 -1°C° 0 mm 5 mps 740 mmHg 85%
    15:00 -1°C° 0 mm 5 mps 740 mmHg 86%
    16:00 -1°C° 0 mm 5 mps 740 mmHg 88%
    17:00 -1°C° 0 mm 5 mps 740 mmHg 89%
    18:00 -1°C° 0 mm 5 mps 740 mmHg 91%
    19:00 -1°C° 0 mm 4 mps 740 mmHg 92%
    20:00 -1°C° 0 mm 4 mps 739 mmHg 94%
    21:00 -1°C° 0 mm 4 mps 739 mmHg 94%
    22:00 -1°C° 0 mm 5 mps 739 mmHg 95%
    23:00 0°C° 0 mm 5 mps 738 mmHg 95%

    Tomorrow, 15 December, Sunday

    Time Temperature Precipitation Wind Pressure Humidity
    00:00 0°C° 0 mm 5 mps 738 mmHg 95%
    01:00 0°C° 0 mm 5 mps 738 mmHg 95%
    02:00 0°C° 0 mm 5 mps 738 mmHg 95%
    03:00 +1°C° 0.3 mm 5 mps 738 mmHg 95%
    04:00 +1°C° 0.3 mm 5 mps 737 mmHg 95%
    05:00 +1°C° 0.3 mm 5 mps 737 mmHg 96%
    06:00 +1°C° 0.2 mm 5 mps 737 mmHg 95%
    07:00 +1°C° 0.2 mm 5 mps 737 mmHg 95%
    08:00 +2°C° 0.2 mm 5 mps 737 mmHg 95%
    09:00 +2°C° 0.4 mm 5 mps 737 mmHg 93%
    10:00 +2°C° 0.4 mm 5 mps 737 mmHg 90%
    11:00 +2°C° 0.4 mm 5 mps 738 mmHg 88%
    12:00 +1°C° 0 mm 5 mps 738 mmHg 85%
    13:00 +1°C° 0 mm 5 mps 739 mmHg 82%
    14:00 +1°C° 0 mm 4 mps 739 mmHg 80%
    15:00 +1°C° 0 mm 4 mps 740 mmHg 81%
    16:00 0°C° 0 mm 4 mps 740 mmHg 83%
    17:00 0°C° 0 mm 4 mps 741 mmHg 85%
    18:00 -1°C° 0 mm 4 mps 741 mmHg 87%
    19:00 -1°C° 0 mm 4 mps 741 mmHg 88%
    20:00 -2°C° 0 mm 4 mps 742 mmHg 90%
    21:00 -1°C° 0 mm 4 mps 742 mmHg 89%
    22:00 -1°C° 0 mm 5 mps 741 mmHg 88%
    23:00 -1°C° 0 mm 5 mps 741 mmHg 88%

    Day after tomorrow, 16 December, Monday

    Time Temperature Precipitation Wind Pressure Humidity
    00:00 -1°C° 0.1 mm 6 mps 741 mmHg 87%
    01:00 0°C° 0.1 mm 7 mps 741 mmHg 87%
    02:00 0°C° 0.1 mm 8 mps 741 mmHg 86%
    03:00 0°C° 0 mm 7 mps 741 mmHg 86%
    04:00 0°C° 0 mm 7 mps 742 mmHg 85%
    05:00 +1°C° 0 mm 6 mps 742 mmHg 84%
    06:00 +1°C° 0 mm 6 mps 743 mmHg 84%
    07:00 -1°C° 0 mm 6 mps 743 mmHg 84%
    08:00 -1°C° 0 mm 5 mps 744 mmHg 84%
    09:00 0°C° 0 mm 5 mps 744 mmHg 81%
    10:00 0°C° 0 mm 5 mps 745 mmHg 79%
    11:00 -1°C° 0 mm 6 mps 745 mmHg 77%
    12:00 0°C° 0 mm 5 mps 746 mmHg 75%
    13:00 0°C° 0 mm 5 mps 746 mmHg 74%
    14:00 0°C° 0 mm 4 mps 746 mmHg 72%
    15:00 0°C° 0 mm 4 mps 746 mmHg 76%
    16:00 -1°C° 0 mm 4 mps 747 mmHg 80%
    17:00 -1°C° 0 mm 3 mps 747 mmHg 84%
    18:00 -1°C° 0 mm 3 mps 747 mmHg 85%
    19:00 -1°C° 0 mm 3 mps 747 mmHg 86%
    20:00 -1°C° 0 mm 3 mps 748 mmHg 87%
    21:00 -1°C° 0 mm 3 mps 748 mmHg 88%
    22:00 -1°C° 0 mm 3 mps 748 mmHg 88%
    23:00 -1°C° 0 mm 2 mps 748 mmHg 89%

    17 December, Tuesday

    Time Temperature Precipitation Wind Pressure Humidity
    00:00 -1°C° 0 mm 2 mps 748 mmHg 90%
    01:00 +1°C° 0 mm 2 mps 748 mmHg 91%
    02:00 +1°C° 0 mm 2 mps 748 mmHg 92%
    03:00 +1°C° 0.1 mm 2 mps 748 mmHg 93%
    04:00 +1°C° 0.1 mm 2 mps 747 mmHg 94%
    05:00 +2°C° 0.1 mm 2 mps 747 mmHg 94%
    06:00 +1°C° 0 mm 3 mps 747 mmHg 93%
    07:00 +1°C° 0 mm 3 mps 747 mmHg 92%
    08:00 0°C° 0 mm 4 mps 747 mmHg 91%
    09:00 +1°C° 0 mm 4 mps 747 mmHg 89%
    10:00 +1°C° 0 mm 4 mps 747 mmHg 87%
    11:00 +1°C° 0 mm 4 mps 747 mmHg 86%
    12:00 +1°C° 0 mm 4 mps 746 mmHg 85%
    13:00 +1°C° 0 mm 4 mps 746 mmHg 84%
    14:00 +1°C° 0 mm 4 mps 746 mmHg 83%
    15:00 +1°C° 0 mm 4 mps 746 mmHg 85%
    16:00 +1°C° 0 mm 3 mps 746 mmHg 87%
    17:00 0°C° 0 mm 3 mps 746 mmHg 89%
    18:00 0°C° 0 mm 3 mps 746 mmHg 89%
    19:00 0°C° 0 mm 3 mps 746 mmHg 90%
    20:00 0°C° 0 mm 3 mps 746 mmHg 90%
    21:00 0°C° 0 mm 3 mps 746 mmHg 90%
    22:00 0°C° 0 mm 3 mps 746 mmHg 90%
    23:00 0°C° 0 mm 3 mps 746 mmHg 90%

    18 December, Wednesday

    Time Temperature Precipitation Wind Pressure Humidity
    00:00 0°C° 0 mm 3 mps 746 mmHg 90%
    01:00 0°C° 0 mm 3 mps 745 mmHg 90%
    02:00 +1°C° 0 mm 2 mps 745 mmHg 90%
    03:00 +1°C° 0 mm 2 mps 745 mmHg 90%
    04:00 +1°C° 0 mm 2 mps 745 mmHg 91%
    05:00 0°C° 0 mm 3 mps 745 mmHg 91%
    06:00 0°C° 0 mm 3 mps 744 mmHg 91%
    07:00 0°C° 0 mm 3 mps 744 mmHg 91%
    08:00 0°C° 0 mm 3 mps 744 mmHg 91%
    09:00 +1°C° 0 mm 3 mps 744 mmHg 89%
    10:00 +1°C° 0 mm 3 mps 744 mmHg 87%
    11:00 +2°C° 0 mm 3 mps 744 mmHg 85%
    12:00 +2°C° 0 mm 3 mps 744 mmHg 85%
    13:00 +2°C° 0 mm 3 mps 743 mmHg 85%
    14:00 +2°C° 0 mm 3 mps 743 mmHg 86%
    15:00 +1°C° 0 mm 3 mps 743 mmHg 88%
    16:00 +1°C° 0 mm 3 mps 743 mmHg 90%
    17:00 +1°C° 0 mm 3 mps 743 mmHg 92%
    18:00 +1°C° 0 mm 3 mps 743 mmHg 93%
    19:00 +1°C° 0 mm 3 mps 742 mmHg 94%
    20:00 +1°C° 0 mm 3 mps 742 mmHg 95%
    21:00 +1°C° 0 mm 3 mps 742 mmHg 95%
    22:00 +1°C° 0 mm 3 mps 742 mmHg 96%
    23:00 +2°C° 0 mm 3 mps 743 mmHg 97%

    19 December, Thursday

    Time Temperature Precipitation Wind Pressure Humidity
    00:00 +2°C° 0 mm 3 mps 743 mmHg 96%
    01:00 +2°C° 0 mm 3 mps 743 mmHg 96%
    02:00 +2°C° 0 mm 3 mps 743 mmHg 96%
    03:00 +2°C° 0 mm 3 mps 742 mmHg 96%
    04:00 +2°C° 0 mm 3 mps 742 mmHg 97%
    05:00 +2°C° 0 mm 3 mps 742 mmHg 97%
    06:00 +3°C° 0 mm 2 mps 742 mmHg 97%
    07:00 +3°C° 0 mm 2 mps 742 mmHg 97%
    08:00 +3°C° 0 mm 2 mps 742 mmHg 97%
    09:00 +3°C° 0 mm 2 mps 742 mmHg 97%
    10:00 +4°C° 0 mm 2 mps 742 mmHg 97%
    11:00 +4°C° 0 mm 2 mps 742 mmHg 97%
    12:00 +3°C° 0 mm 3 mps 742 mmHg 97%
    13:00 +3°C° 0 mm 3 mps 742 mmHg 96%
    14:00 +3°C° 0 mm 3 mps 741 mmHg 96%
    15:00 +3°C° 0.1 mm 3 mps 742 mmHg 92%
    16:00 +3°C° 0.1 mm 3 mps 742 mmHg 88%
    17:00 +2°C° 0.1 mm 3 mps 742 mmHg 84%
    18:00 +2°C° 0 mm 3 mps 742 mmHg 86%
    19:00 0°C° 0 mm 4 mps 742 mmHg 88%
    20:00 0°C° 0 mm 4 mps 742 mmHg 90%
    21:00 0°C° 0 mm 4 mps 742 mmHg 85%
    22:00 0°C° 0 mm 4 mps 743 mmHg 81%
    23:00 0°C° 0 mm 5 mps 743 mmHg 77%
    Show more